Flag for Congo Weather past 2 weeks in Brazzaville, Congo

Now
82 °F

Clear.


Feels Like: 86 °F
Forecast: 72 / 86 °F
Wind: 5 mph from Northwest

Location: Brazzaville / Maya-Maya

Current Time: Sep 23, 2014 at 9:31:30 PM

Latest Report: Sep 23, 2014 at 9:00 PM


Visibility: 5 mi

Pressure: 29.92 "Hg

Humidity: 66%

Dew point: 70 °F

Location of BrazzavilleLocation

Historic Weather in Brazzaville — Graph

°F

Brazzaville temperature yesterday

Maximum temperature yesterday: 88 °F (at 2:00 PM)
Minimum temperature yesterday: 72 °F (at 12:00 AM)
Average temperature yesterday: 79 °F

Past Weeks' High & Low Weather Summary

 TemperatureHumidityPressure
High93 °F (Sep 13, 2:00 PM)94% (Sep 17, 4:00 AM)30.07 "Hg (Sep 17, 4:00 AM)
Low68 °F (Sep 17, 4:00 AM)39% (Sep 19, 4:00 PM)29.80 "Hg (Sep 13, 3:00 PM)
Average79 °F69%29.94 "Hg
* Reported Sep 8 8:00 PM — Sep 23 8:00 PM, Brazzaville, Weather by CustomWeather, © 2014

Note: Actual official high and low records may vary slightly from our data, if they occured in-between our weather recording intervals... More about our weather records

Advertising

Brazzaville weather history for previous 24 hours

 ConditionsComfort  
Time TempWeatherWind HumidityBarometerVisibility
8:00 PM
Sep 23
84 °FClear.6 mph62%29.89 "Hg5 mi
7:00 PM86 °FClear.3 mph59%29.86 "Hg5 mi
6:00 PM90 °FClear.5 mph52%29.83 "Hg5 mi
5:00 PM90 °FPassing clouds.7 mph52%29.83 "Hg6 mi
4:00 PM91 °FScattered clouds.6 mph49%29.83 "Hg6 mi
3:00 PM90 °FPartly sunny.7 mph52%29.83 "HgN/A
2:00 PM86 °FPartly sunny.7 mph59%29.86 "HgN/A
1:00 PM88 °FPartly sunny.5 mph55%29.89 "Hg5 mi
12:00 PM86 °FPartly sunny.8 mph59%29.92 "Hg5 mi
11:00 AM82 °FBroken clouds.7 mph66%29.98 "Hg5 mi
10:00 AM77 °FBroken clouds.7 mph79%30.01 "Hg5 mi
9:00 AM77 °FPartly sunny.7 mph79%30.01 "Hg5 mi
8:00 AM75 °FPartly sunny.5 mph83%30.01 "Hg5 mi
7:00 AM75 °FPartly sunny.5 mph78%29.98 "Hg5 mi
6:00 AM73 °FPartly sunny.3 mph83%29.95 "Hg5 mi
5:00 AM73 °FPassing clouds.3 mph89%29.95 "Hg5 mi
4:00 AM73 °FClear.3 mph89%29.92 "Hg5 mi
2:00 AM75 °FClear.7 mph83%29.89 "Hg5 mi
1:00 AM75 °FClear.7 mph83%29.92 "Hg5 mi
12:00 AM77 °FClear.9 mph79%29.92 "Hg5 mi
11:00 PM
Sep 22
79 °FPassing clouds.6 mph74%29.95 "Hg5 mi
10:00 PM81 °FPassing clouds.6 mph66%29.95 "Hg5 mi
9:00 PM81 °FClear.7 mph66%29.92 "Hg5 mi
Weather by CustomWeather, © 2014

See weather overviewHow to use our weather pages